This demonstration page uses our WeatherBlox Daily Observations layout. Learn more.

Left ArrowRight Arrow

Hourly Observations for September 15, 2018

Temp ( °F °C ) Dew Point ( °F °C ) Humidity (%) Winds ( mph kmh ) Pressure ( in mb ) Visibility ( mi km ) Precip ( " mm )
12:53 am 00:53 Mostly Cloudy 74 23.3 68 20 82 82 VRB 3 6 30.09 1019 10 16 0.00 0.00
1:53 am 01:53 Mostly Cloudy 71 21.7 68 20 90 90 Calm 30.08 1019 10 16 0.00 0.00
2:53 am 02:53 Clear 70 21.1 68 20 93 93 Calm 30.07 1018 9 14 0.00 0.00
3:53 am 03:53 Clear 71 21.7 68 20 90 90 VRB 3 6 30.07 1018 8 13 0.00 0.00
4:53 am 04:53 Mostly Clear 71 21.7 69 20.6 94 94 Calm 30.07 1018 7 11 0.00 0.00
5:53 am 05:53 Clear with Mist and Fog 68 20 67 19.4 96 96 Calm 30.07 1018 5 8 0.00 0.00
6:53 am 06:53 Clear with Mist and Fog 70 21.1 68 20 93 93 Calm 30.08 1019 5 8 0.00 0.00
7:06 am 07:06 Partly Cloudy with Mist and Fog 68 20 67 19.4 96 96 Calm 30.06 1018 4 6 0.00 0.03
7:20 am 07:20 Mostly Cloudy with Mist and Fog 69 20.6 68 20 96 96 NNW 3 6 30.06 1018 4 6 0.00 0.03
7:35 am 07:35 Cloudy with Mist and Fog 70 21.1 69 20.6 97 97 NE 3 6 30.06 1018 3 4 0.00 0.03
7:44 am 07:44 Cloudy with Mist and Fog 71 21.7 69 20.6 94 94 Calm 30.06 1018 3 4 0.00 0.03
7:53 am 07:53 Cloudy with Mist and Fog 71 21.7 70 21.1 96 96 N 3 6 30.09 1019 3 4 0.00 0.03
8:29 am 08:29 Cloudy with Mist and Fog 72 22.2 70 21.1 94 94 NNE 3 6 30.09 1019 3 5 0.00 0.00
8:46 am 08:46 Cloudy with Mist and Fog 72 22.2 70 21.1 94 94 ENE 5 7 30.09 1019 3 5 0.00 0.00
8:53 am 08:53 Cloudy with Mist and Fog 73 22.8 71 21.7 94 94 ENE 5 7 30.11 1020 3 5 0.00 0.00
9:09 am 09:09 Cloudy with Mist and Fog 73 22.8 71 21.7 94 94 E 6 9 30.09 1019 4 6 0.00 0.00
9:53 am 09:53 Cloudy 74 23.3 71 21.7 91 91 E 7 11 30.11 1020 7 11 0.00 0.00
10:08 am 10:08 Cloudy 76 24.4 71 21.7 85 85 E 8 13 30.12 1020 9 14 0.00 0.00
10:36 am 10:36 Partly Cloudy 78 25.6 72 22.2 82 82 NE 6 9 30.12 1020 10 16 0.00 0.00
10:53 am 10:53 Mostly Sunny 79 26.1 72 22.2 79 79 VRB 5 7 30.13 1020 10 16 0.00 0.00
11:53 am 11:53 Sunny 82 27.8 71 21.7 69 69 NE 7 11 30.11 1020 10 16 0.00 0.00
12:53 pm 12:53 Mostly Sunny 85 29.4 72 22.2 65 65 NE 7 11 30.10 1019 10 16 0.00 0.00
1:53 pm 13:53 Sunny 86 30 71 21.7 61 61 ENE 9 15 30.09 1019 10 16 0.00 0.00
2:53 pm 14:53 Partly Cloudy 87 30.6 71 21.7 59 59 ENE 8 13 30.07 1018 10 16 0.00 0.00
3:53 pm 15:53 Mostly Sunny 88 31.1 70 21.1 55 55 N 5 7 30.05 1018 10 16 0.00 0.00
4:53 pm 16:53 Sunny 88 31.1 70 21.1 55 55 ENE 8 13 30.04 1017 10 16 0.00 0.00
5:53 pm 17:53 Sunny 88 31.1 69 20.6 54 54 E 8 13 30.04 1017 10 16 0.00 0.00
6:53 pm 18:53 Sunny 86 30 69 20.6 57 57 E 8 13 30.05 1018 10 16 0.00 0.00
7:53 pm 19:53 Clear 75 23.9 70 21.1 84 84 E 5 7 30.05 1018 10 16 0.00 0.00
8:53 pm 20:53 Clear 72 22.2 69 20.6 91 91 Calm 30.06 1018 10 16 0.00 0.00
9:53 pm 21:53 Clear 71 21.7 69 20.6 94 94 Calm 30.07 1018 10 16 0.00 0.00
10:53 pm 22:53 Clear 70 21.1 68 20 93 93 Calm 30.07 1018 10 16 0.00 0.00
11:53 pm 23:53 Clear 69 20.6 68 20 96 96 Calm 30.08 1019 10 16 0.00 0.00

Powered by AerisWeather